Date String (YYYY-MM-DD hh:mm:ss) UTC,Instrument flags,absolute air pressure of the measurement (hPa),sample flow rate (lpm),inlet stack bypass flow (lpm),air temperature of the measurement (°C),ambient temperature measured by the external sensor (°C),aerosol sample conditioner tube jacket temperature (°C),OPC LED temperature (°C),internal box temperature (°C),relative humidity of the measurement (%),span deviation,mass concentration of particles derived from Lorenz-Mie calculation of OPC scattering (μg/m³),mass concentration of particles derived from Lorenz-Mie calculation of OPC scattering (μg/m³),mass concentration of particles derived from Lorenz-Mie calculation of OPC scattering (μg/m³)
DateTimeUTC,F1_M11,P_M11,Q1_M11,Q2_M11,T1_M11,T2_M11,T3_M11,T4_M11,T5_M11,U1_M11,ZSPAN_M11,X0_M11,X2_M11,X1_M11
2023-09-20 12:00:00,SystemResetWarning,0829.0,5.00,000.00,029.1,027.6,000.0,037.5,030.7,17.4,0000.0,0003.38,0001.62,0001.28
2023-09-20 12:01:00,SystemResetWarning,0829.0,5.01,000.00,029.1,027.7,000.0,037.5,030.7,17.4,0000.0,0003.45,0001.64,0001.28
2023-09-20 12:02:00,SystemResetWarning,0829.0,5.00,000.00,029.1,027.7,000.0,037.5,030.8,17.5,0000.0,0003.51,0001.65,0001.29
2023-09-20 12:03:00,SystemResetWarning,0829.1,4.99,000.00,029.1,027.7,000.0,037.5,030.7,17.5,0000.0,0003.69,0001.68,0001.29
2023-09-20 12:04:00,SystemResetWarning,0829.1,5.00,000.00,029.1,027.7,000.0,037.5,030.7,17.5,0000.0,0003.73,0001.71,0001.30
2023-09-20 12:05:00,SystemResetWarning,0829.1,5.00,000.00,029.1,027.7,000.0,037.5,030.7,17.3,0000.0,0003.76,0001.72,0001.30
2023-09-20 12:06:00,SystemResetWarning,0829.1,5.01,000.00,029.1,027.6,000.0,037.5,030.7,17.1,0000.0,0003.70,0001.69,0001.28
2023-09-20 12:07:00,SystemResetWarning,0829.1,5.01,000.00,029.1,027.7,000.0,037.5,030.7,16.9,0000.0,0004.28,0001.66,0001.29
2023-09-20 12:08:00,SystemResetWarning,0829.1,5.01,000.00,029.1,027.7,000.0,037.5,030.7,16.7,0000.0,0003.93,0001.70,0001.31
2023-09-20 12:09:00,SystemResetWarning,0829.1,4.99,000.00,029.1,027.7,000.0,037.5,030.8,16.7,0000.0,0003.98,0001.73,0001.32
2023-09-20 12:10:00,SystemResetWarning,0829.2,4.99,000.00,029.2,027.7,000.0,037.5,030.7,16.7,0000.0,0003.94,0001.71,0001.33
2023-09-20 12:11:00,SystemResetWarning,0829.2,4.99,000.00,029.2,027.7,000.0,037.5,030.7,16.8,0000.0,0004.51,0001.73,0001.34
2023-09-20 12:12:00,SystemResetWarning,0829.2,5.01,000.00,029.2,027.7,000.0,037.5,030.8,16.9,0000.0,0004.72,0001.72,0001.34
2023-09-20 12:13:00,SystemResetWarning,0829.3,5.01,000.00,029.2,027.7,000.0,037.6,030.8,16.9,0000.0,0004.82,0001.72,0001.34
2023-09-20 12:14:00,SystemResetWarning,0829.2,5.00,000.00,029.2,027.7,000.0,037.6,030.8,16.7,0000.0,0004.96,0001.74,0001.36
2023-09-20 12:15:00,SystemResetWarning,0829.2,5.01,000.00,029.2,027.7,000.0,037.6,030.8,16.7,0000.0,0004.88,0001.76,0001.38
2023-09-20 12:16:00,SystemResetWarning,0829.2,4.99,000.00,029.2,027.7,000.0,037.6,030.8,16.7,0000.0,0004.89,0001.79,0001.41
2023-09-20 12:17:00,SystemResetWarning,0829.2,4.99,000.00,029.2,027.7,000.0,037.6,030.8,16.8,0000.0,0005.05,0001.86,0001.44
2023-09-20 12:18:00,SystemResetWarning,0829.2,5.01,000.00,029.2,027.7,000.0,037.6,030.8,16.9,0000.0,0004.63,0001.90,0001.46
2023-09-20 12:19:00,SystemResetWarning,0829.2,5.01,000.00,029.2,027.7,000.0,037.6,030.8,17.0,0000.0,0004.42,0001.90,0001.48
2023-09-20 12:20:00,SystemResetWarning,0829.2,5.01,000.00,029.2,027.7,000.0,037.6,030.8,17.0,0000.0,0004.75,0001.89,0001.50
2023-09-20 12:21:00,SystemResetWarning,0829.2,5.00,000.00,029.2,027.7,000.0,037.6,030.8,17.1,0000.0,0005.36,0001.90,0001.52
2023-09-20 12:22:00,SystemResetWarning,0829.3,4.99,000.00,029.2,027.7,000.0,037.6,030.8,17.2,0000.0,0005.00,0001.89,0001.54
2023-09-20 12:23:00,SystemResetWarning,0829.3,5.00,000.00,029.2,027.7,000.0,037.6,030.7,17.2,0000.0,0004.56,0001.88,0001.56
2023-09-20 12:24:00,SystemResetWarning,0829.2,5.00,000.00,029.2,027.7,000.0,037.6,030.7,16.9,0000.0,0004.59,0001.93,0001.58
2023-09-20 12:25:00,SystemResetWarning,0829.2,5.00,000.00,029.2,027.7,000.0,037.6,030.8,16.6,0000.0,0004.24,0001.93,0001.59
2023-09-20 12:26:00,SystemResetWarning,0829.2,5.01,000.00,029.2,027.7,000.0,037.6,030.8,16.4,0000.0,0004.81,0001.99,0001.60
2023-09-20 12:27:00,SystemResetWarning,0829.2,5.01,000.00,029.2,027.7,000.0,037.6,030.8,16.5,0000.0,0005.85,0002.03,0001.61
2023-09-20 12:28:00,SystemResetWarning,0829.2,5.01,000.00,029.2,027.7,000.0,037.6,030.8,16.5,0000.0,0005.80,0002.01,0001.61
2023-09-20 12:29:00,SystemResetWarning,0829.2,4.99,000.00,029.2,027.7,000.0,037.6,030.8,16.6,0000.0,0005.99,0002.07,0001.61
2023-09-20 12:30:00,SystemResetWarning,0829.2,4.99,000.00,029.2,027.7,000.0,037.6,030.8,16.6,0000.0,0006.20,0002.15,0001.62
2023-09-20 12:31:00,SystemResetWarning,0829.3,5.00,000.00,029.2,027.7,000.0,037.6,030.8,16.6,0000.0,0005.89,0002.21,0001.63
2023-09-20 12:32:00,SystemResetWarning,0829.3,5.02,000.00,029.2,027.7,000.0,037.6,030.8,16.6,0000.0,0005.44,0002.30,0001.64
2023-09-20 12:33:00,SystemResetWarning,0829.4,5.00,000.00,029.2,027.7,000.0,037.6,030.8,16.8,0000.0,0005.31,0002.33,0001.63
2023-09-20 12:34:00,SystemResetWarning,0829.4,5.00,000.00,029.2,027.7,000.0,037.6,030.7,16.9,0000.0,0005.42,0002.38,0001.63
2023-09-20 12:35:00,SystemResetWarning,0829.3,4.99,000.00,029.2,027.7,000.0,037.6,030.8,16.8,0000.0,0005.45,0002.40,0001.65
2023-09-20 12:36:00,SystemResetWarning,0829.3,5.00,000.00,029.2,027.7,000.0,037.6,030.7,16.8,0000.0,0005.52,0002.44,0001.66
2023-09-20 12:37:00,SystemResetWarning,0829.3,5.01,000.00,029.2,027.6,000.0,037.6,030.7,16.8,0000.0,0005.17,0002.42,0001.67
2023-09-20 12:38:00,SystemResetWarning,0829.3,5.01,000.00,029.2,027.6,000.0,037.6,030.7,16.9,0000.0,0004.04,0002.39,0001.67
2023-09-20 12:39:00,SystemResetWarning,0829.3,5.00,000.00,029.2,027.6,000.0,037.6,030.7,16.8,0000.0,0004.19,0002.45,0001.68
2023-09-20 12:40:00,SystemResetWarning,0829.3,5.01,000.00,029.2,027.6,000.0,037.6,030.7,16.7,0000.0,0004.52,0002.47,0001.69
2023-09-20 12:41:00,SystemResetWarning,0829.2,4.99,000.00,029.2,027.6,000.0,037.6,030.8,16.7,0000.0,0005.44,0002.45,0001.69
2023-09-20 12:42:00,SystemResetWarning,0829.3,4.99,000.00,029.2,027.6,000.0,037.6,030.7,16.6,0000.0,0005.55,0002.43,0001.68
2023-09-20 12:43:00,SystemResetWarning,0829.4,5.00,000.00,029.2,027.6,000.0,037.6,030.7,17.1,0000.0,0005.55,0002.37,0001.68
2023-09-20 12:44:00,SystemResetWarning,0829.4,5.00,000.00,029.2,027.6,000.0,037.6,030.7,17.3,0000.0,0005.55,0002.36,0001.67
2023-09-20 12:45:00,SystemResetWarning,0829.3,5.00,000.00,029.2,027.6,000.0,037.6,030.7,17.0,0000.0,0005.43,0002.33,0001.67
2023-09-20 12:46:00,SystemResetWarning,0829.2,5.00,000.00,029.2,027.5,000.0,037.6,030.7,16.8,0000.0,0005.36,0002.28,0001.66
2023-09-20 12:47:00,SystemResetWarning,0829.2,5.01,000.00,029.2,027.6,000.0,037.6,030.7,17.0,0000.0,0005.32,0002.26,0001.64
2023-09-20 12:48:00,SystemResetWarning,0829.2,5.00,000.00,029.2,027.6,000.0,037.6,030.7,16.9,0000.0,0005.29,0002.25,0001.63
2023-09-20 12:49:00,SystemResetWarning,0829.3,5.00,000.00,029.2,027.6,000.0,037.6,030.7,16.7,0000.0,0005.32,0002.26,0001.62
2023-09-20 12:50:00,SystemResetWarning,0829.4,4.99,000.00,029.2,027.6,000.0,037.6,030.7,16.9,0000.0,0005.33,0002.26,0001.62
2023-09-20 12:51:00,SystemResetWarning,0829.4,4.99,000.00,029.2,027.6,000.0,037.6,030.7,17.0,0000.0,0005.40,0002.27,0001.61
2023-09-20 12:52:00,SystemResetWarning,0829.3,5.01,000.00,029.2,027.6,000.0,037.6,030.7,17.0,0000.0,0004.09,0002.25,0001.62
2023-09-20 12:53:00,SystemResetWarning,0829.3,5.01,000.00,029.2,027.6,000.0,037.6,030.8,17.0,0000.0,0003.95,0002.22,0001.61
2023-09-20 12:54:00,SystemResetWarning,0829.4,4.99,000.00,029.2,027.6,000.0,037.6,030.8,17.0,0000.0,0003.93,0002.22,0001.62
2023-09-20 12:55:00,SystemResetWarning,0829.3,4.99,000.00,029.2,027.6,000.0,037.6,030.7,17.0,0000.0,0004.05,0002.20,0001.62
2023-09-20 12:56:00,SystemResetWarning,0829.3,5.00,000.00,029.2,027.6,000.0,037.5,030.7,17.1,0000.0,0004.08,0002.21,0001.62
2023-09-20 12:57:00,SystemResetWarning,0829.3,5.01,000.00,029.2,027.6,000.0,037.6,030.7,17.1,0000.0,0004.18,0002.24,0001.62
2023-09-20 12:58:00,SystemResetWarning,0829.4,5.01,000.00,029.2,027.6,000.0,037.6,030.7,17.1,0000.0,0004.33,0002.28,0001.63
2023-09-20 12:59:00,SystemResetWarning,0829.3,5.00,000.00,029.2,027.6,000.0,037.6,030.7,17.1,0000.0,0004.40,0002.29,0001.63
